| time (UTC) | temp F | wind direction | speed MPH | gust MPH | rain 1hr in | rain 24hr in | rain mn in | humidity % | barometer mb |
| 20260506041512 | 51 | 355 | 0.0 | 3.0 | 0.00 | 1.20 | 0.00 | 93 | 1010.0 |
| 20260506040011 | 51 | 351 | 0.0 | 3.0 | 0.00 | 1.20 | 0.00 | 93 | 1010.1 |
| 20260506034511 | 51 | 287 | 0.0 | 0.0 | 0.00 | 1.35 | 0.00 | 93 | 1010.2 |
| 20260506033015 | 51 | 284 | 0.0 | 0.0 | 0.00 | 1.35 | 0.00 | 92 | 1010.2 |
| 20260506031518 | 51 | 284 | 0.0 | 5.0 | 0.00 | 1.35 | 0.00 | 93 | 1010.1 |
| 20260506030008 | 51 | 13 | 0.0 | 3.0 | 0.00 | 1.35 | 0.00 | 93 | 1010.2 |
| 20260506024509 | 51 | 355 | 0.0 | 1.0 | 0.00 | 1.57 | 0.00 | 93 | 1010.2 |
| 20260506023008 | 51 | 355 | 1.0 | 5.0 | 0.00 | 1.57 | 0.00 | 93 | 1010.2 |
| 20260506021506 | 51 | 339 | 0.0 | 4.0 | 0.00 | 1.57 | 0.00 | 93 | 1010.3 |
| 20260506020007 | 51 | 277 | 0.0 | 3.0 | 0.00 | 1.57 | 0.00 | 93 | 1010.3 |
| 20260506014504 | 51 | 338 | 2.0 | 5.0 | 0.00 | 1.66 | 0.00 | 93 | 1010.3 |
| 20260506013003 | 51 | 328 | 0.0 | 5.0 | 0.00 | 1.66 | 0.00 | 93 | 1010.3 |
| 20260506011507 | 51 | 355 | 0.0 | 3.0 | 0.00 | 1.66 | 0.00 | 92 | 1010.4 |
| 20260506010001 | 51 | 333 | 0.0 | 4.0 | 0.00 | 1.66 | 0.00 | 92 | 1010.4 |
| 20260506004602 | 51 | 323 | 2.0 | 5.0 | 0.00 | 1.71 | 0.00 | 92 | 1010.5 |
| 20260506003123 | 51 | 326 | 2.0 | 5.0 | 0.00 | 1.71 | 0.00 | 92 | 1010.6 |
| 20260506001603 | 51 | 336 | 1.0 | 5.0 | 0.00 | 1.71 | 0.00 | 92 | 1010.7 |
| 20260506000057 | 51 | 340 | 1.0 | 6.0 | 0.00 | 1.71 | 0.00 | 92 | 1010.8 |
| 20260505234556 | 51 | 327 | 3.0 | 7.0 | 0.00 | 1.73 | 0.00 | 92 | 1010.8 |
| 20260505233106 | 51 | 341 | 1.0 | 5.0 | 0.00 | 1.73 | 0.00 | 92 | 1010.9 |
| 20260505231554 | 51 | 340 | 2.0 | 6.0 | 0.00 | 1.73 | 0.00 | 92 | 1011.0 |
| 20260505230057 | 51 | 331 | 1.0 | 5.0 | 0.00 | 1.73 | 0.00 | 91 | 1011.0 |
| 20260505224552 | 51 | 319 | 2.0 | 6.0 | 0.00 | 1.77 | 0.00 | 90 | 1011.0 |
| 20260505223050 | 51 | 340 | 2.0 | 4.0 | 0.00 | 1.77 | 0.00 | 89 | 1011.0 |
| 20260505221549 | 51 | 346 | 2.0 | 4.0 | 0.00 | 1.77 | 0.00 | 89 | 1011.1 |
| 20260505220046 | 51 | 340 | 2.0 | 5.0 | 0.00 | 1.77 | 0.00 | 89 | 1011.0 |
| 20260505214550 | 51 | 18 | 1.0 | 5.0 | 0.00 | 1.80 | 1.77 | 89 | 1011.0 |
| 20260505213047 | 52 | 360 | 2.0 | 5.0 | 0.00 | 1.80 | 1.77 | 89 | 1011.1 |
| 20260505211547 | 52 | 331 | 1.0 | 6.0 | 0.00 | 1.80 | 1.77 | 89 | 1011.1 |
| 20260505210046 | 52 | 18 | 2.0 | 6.0 | 0.00 | 1.80 | 1.77 | 89 | 1011.1 |
| 20260505204544 | 52 | 28 | 1.0 | 6.0 | 0.00 | 1.85 | 1.77 | 89 | 1011.1 |
| 20260505203043 | 52 | 325 | 1.0 | 5.0 | 0.00 | 1.85 | 1.77 | 90 | 1011.0 |
| 20260505201551 | 52 | 294 | 2.0 | 7.0 | 0.00 | 1.85 | 1.77 | 90 | 1010.8 |
| 20260505200043 | 52 | 11 | 1.0 | 8.0 | 0.00 | 1.85 | 1.77 | 90 | 1010.8 |
| 20260505194542 | 52 | 66 | 3.0 | 8.0 | 0.00 | 1.86 | 1.77 | 90 | 1010.7 |
| 20260505193042 | 52 | 40 | 3.0 | 9.0 | 0.01 | 1.86 | 1.77 | 90 | 1010.5 |
| 20260505191546 | 53 | 42 | 1.0 | 8.0 | 0.06 | 1.86 | 1.77 | 90 | 1010.4 |
| 20260505190041 | 53 | 43 | 3.0 | 7.0 | 0.06 | 1.86 | 1.77 | 91 | 1010.3 |
| 20260505184543 | 53 | 18 | 2.0 | 4.0 | 0.06 | 1.86 | 1.77 | 91 | 1010.3 |
| 20260505183106 | 53 | 63 | 2.0 | 8.0 | 0.06 | 1.85 | 1.76 | 91 | 1010.2 |
| 20260505181540 | 53 | 74 | 1.0 | 4.0 | 0.01 | 1.80 | 1.72 | 91 | 1010.2 |
| 20260505180042 | 53 | 49 | 0.0 | 4.0 | 0.00 | 1.80 | 1.71 | 90 | 1010.0 |
| 20260505174538 | 53 | 32 | 0.0 | 4.0 | 0.01 | 1.80 | 1.71 | 90 | 1010.0 |
| 20260505173047 | 53 | 340 | 0.0 | 3.0 | 0.01 | 1.80 | 1.71 | 90 | 1010.0 |
| 20260505171545 | 53 | 335 | 0.0 | 4.0 | 0.02 | 1.80 | 1.71 | 90 | 1010.1 |
| 20260505170038 | 53 | 331 | 0.0 | 3.0 | 0.02 | 1.80 | 1.71 | 91 | 1010.1 |
| 20260505164536 | 53 | 13 | 0.0 | 6.0 | 0.02 | 1.79 | 1.70 | 90 | 1010.1 |
| 20260505163036 | 53 | 35 | 1.0 | 5.0 | 0.03 | 1.79 | 1.70 | 90 | 1010.1 |
| 20260505161535 | 53 | 28 | 0.0 | 5.0 | 0.02 | 1.78 | 1.69 | 90 | 1010.1 |
| 20260505153034 | 52 | 34 | 3.0 | 7.0 | 0.03 | 1.76 | 1.67 | 90 | 1010.1 |
| 20260505151536 | 52 | 57 | 2.0 | 10.0 | 0.05 | 1.76 | 1.67 | 90 | 1010.1 |
| 20260505124526 | 52 | 63 | 3.0 | 12.0 | 0.09 | 1.65 | 1.57 | 91 | 1009.9 |
| 20260505123024 | 51 | 66 | 2.0 | 8.0 | 0.09 | 1.64 | 1.55 | 91 | 1010.0 |
| 20260505121528 | 51 | 22 | 2.0 | 7.0 | 0.08 | 1.60 | 1.51 | 91 | 1010.0 |
| 20260505120051 | 51 | 73 | 3.0 | 12.0 | 0.08 | 1.57 | 1.49 | 91 | 1010.0 |
| 20260505114523 | 51 | 42 | 4.0 | 11.0 | 0.08 | 1.56 | 1.47 | 91 | 1010.1 |
| 20260505113024 | 52 | 19 | 5.0 | 10.0 | 0.09 | 1.54 | 1.46 | 91 | 1010.1 |
| 20260505111520 | 52 | 24 | 3.0 | 10.0 | 0.08 | 1.52 | 1.43 | 91 | 1010.1 |
| 20260505101522 | 52 | 56 | 4.0 | 11.0 | 0.03 | 1.44 | 1.35 | 91 | 1010.0 |
| 20260505100022 | 52 | 13 | 2.0 | 10.0 | 0.05 | 1.43 | 1.35 | 91 | 1010.0 |
| 20260505094515 | 52 | 47 | 3.0 | 8.0 | 0.06 | 1.43 | 1.34 | 92 | 1009.9 |
| 20260505093015 | 52 | 41 | 5.0 | 11.0 | 0.06 | 1.42 | 1.33 | 92 | 1009.8 |
| 20260505091523 | 52 | 18 | 3.0 | 10.0 | 0.08 | 1.41 | 1.32 | 92 | 1009.8 |
| 20260505090026 | 52 | 10 | 4.0 | 10.0 | 0.09 | 1.39 | 1.30 | 92 | 1009.8 |
| 20260505084510 | 52 | 339 | 4.0 | 11.0 | 0.09 | 1.37 | 1.28 | 92 | 1009.8 |
| 20260505083009 | 52 | 42 | 5.0 | 12.0 | 0.12 | 1.35 | 1.27 | 92 | 1009.9 |
| 20260505081511 | 52 | 49 | 2.0 | 9.0 | 0.12 | 1.33 | 1.24 | 92 | 1009.8 |
| 20260505080006 | 52 | 22 | 4.0 | 11.0 | 0.12 | 1.30 | 1.21 | 92 | 1009.8 |
| 20260505074504 | 52 | 329 | 4.0 | 10.0 | 0.13 | 1.28 | 1.19 | 92 | 1009.9 |
| 20260505073003 | 52 | 10 | 4.0 | 8.0 | 0.14 | 1.24 | 1.14 | 92 | 1009.9 |
| 20260505071504 | 52 | 73 | 3.0 | 9.0 | 0.16 | 1.21 | 1.12 | 92 | 1009.9 |
| 20260505070001 | 52 | 41 | 3.0 | 8.0 | 0.17 | 1.18 | 1.09 | 92 | 1009.9 |
| 20260505064559 | 52 | 346 | 4.0 | 8.0 | 0.18 | 1.14 | 1.06 | 92 | 1009.9 |
| 20260505063058 | 52 | 19 | 2.0 | 9.0 | 0.18 | 1.09 | 1.01 | 92 | 1009.9 |
| 20260505061559 | 52 | 40 | 4.0 | 12.0 | 0.18 | 1.06 | 0.97 | 92 | 1009.9 |
| 20260505060055 | 52 | 15 | 4.0 | 9.0 | 0.17 | 1.02 | 0.93 | 92 | 1009.8 |
| 20260505054620 | 52 | 355 | 5.0 | 8.0 | 0.17 | 0.97 | 0.88 | 93 | 1009.8 |
| 20260505053103 | 52 | 28 | 2.0 | 8.0 | 0.17 | 0.91 | 0.83 | 93 | 1009.9 |
| 20260505051550 | 52 | 273 | 1.0 | 6.0 | 0.17 | 0.87 | 0.79 | 93 | 1009.9 |